TimeMDT,TemperatureF,Dew PointF,Humidity,Sea Level PressureIn,VisibilityMPH,Wind Direction,Wind SpeedMPH,Gust SpeedMPH,PrecipitationIn,Events,Conditions,WindDirDegrees,DateUTC
12:15 AM,44.6,28.4,53,30.13,10.0,Calm,Calm,-,N/A,,Clear,0,2012-10-13 06:15:00
12:35 AM,39.2,26.6,61,30.12,10.0,NNE,6.9,-,N/A,,Clear,20,2012-10-13 06:35:00
12:55 AM,39.2,26.6,61,30.12,10.0,NNE,3.5,-,N/A,,Clear,30,2012-10-13 06:55:00
1:15 AM,39.2,28.4,65,30.13,10.0,North,3.5,-,N/A,,Clear,350,2012-10-13 07:15:00
1:35 AM,39.2,28.4,65,30.13,10.0,North,3.5,-,N/A,,Clear,350,2012-10-13 07:35:00
1:55 AM,41.0,28.4,61,30.13,10.0,North,8.1,-,N/A,,Clear,350,2012-10-13 07:55:00
2:15 AM,41.0,28.4,61,30.14,10.0,NW,6.9,-,N/A,,Clear,320,2012-10-13 08:15:00
2:35 AM,37.4,28.4,70,30.14,10.0,NW,6.9,-,N/A,,Clear,320,2012-10-13 08:35:00
2:55 AM,37.4,28.4,70,30.14,10.0,NNW,5.8,-,N/A,,Clear,340,2012-10-13 08:55:00
3:15 AM,37.4,28.4,70,30.13,10.0,NW,6.9,-,N/A,,Clear,320,2012-10-13 09:15:00
3:35 AM,37.4,28.4,70,30.13,10.0,Calm,Calm,-,N/A,,Clear,0,2012-10-13 09:35:00
3:55 AM,35.6,26.6,70,30.13,10.0,Calm,Calm,-,N/A,,Clear,0,2012-10-13 09:55:00
4:15 AM,35.6,26.6,70,30.13,10.0,West,10.4,-,N/A,,Clear,270,2012-10-13 10:15:00
4:55 AM,37.4,28.4,70,30.13,10.0,NW,5.8,-,N/A,,Clear,320,2012-10-13 10:55:00
5:15 AM,35.6,26.6,70,30.14,10.0,Calm,Calm,-,N/A,,Clear,0,2012-10-13 11:15:00
5:35 AM,32.0,24.8,75,30.15,10.0,Calm,Calm,-,N/A,,Clear,0,2012-10-13 11:35:00
5:50 AM,33.8,26.6,75,30.15,10.0,WNW,9.2,-,N/A,,Clear,290,2012-10-13 11:50:00
6:50 AM,35.6,26.6,70,30.15,10.0,West,10.4,-,N/A,,Clear,280,2012-10-13 12:50:00
7:50 AM,39.2,28.4,65,30.16,10.0,WNW,9.2,-,N/A,,Partly Cloudy,290,2012-10-13 13:50:00
8:50 AM,44.6,28.4,53,30.18,10.0,NW,5.8,-,N/A,,Partly Cloudy,310,2012-10-13 14:50:00
9:50 AM,48.2,28.4,46,30.19,10.0,WNW,10.4,-,N/A,,Partly Cloudy,290,2012-10-13 15:50:00
10:50 AM,51.8,26.6,38,30.19,10.0,WNW,17.3,-,N/A,,Scattered Clouds,300,2012-10-13 16:50:00
11:50 AM,53.6,26.6,35,30.18,10.0,WSW,12.7,-,N/A,,Scattered Clouds,240,2012-10-13 17:50:00
12:50 PM,55.4,24.8,31,30.16,10.0,NNW,16.1,20.7,N/A,,Scattered Clouds,330,2012-10-13 18:50:00
2:50 PM,59.0,26.6,29,30.14,10.0,NW,18.4,-,N/A,,Partly Cloudy,320,2012-10-13 20:50:00
3:50 PM,60.8,26.6,27,30.14,10.0,NNW,13.8,23.0,N/A,,Clear,330,2012-10-13 21:50:00
4:50 PM,60.8,26.6,27,30.14,10.0,NNW,15.0,24.2,N/A,,Clear,330,2012-10-13 22:50:00
6:50 PM,55.4,28.4,36,30.18,10.0,NW,8.1,-,N/A,,Clear,320,2012-10-14 00:50:00
8:50 PM,51.8,30.2,44,30.23,10.0,NW,6.9,-,N/A,,Clear,310,2012-10-14 02:50:00
10:15 PM,48.2,32.0,54,30.26,10.0,NNE,8.1,-,N/A,,Clear,20,2012-10-14 04:15:00
10:35 PM,48.2,32.0,54,30.26,10.0,North,9.2,-,N/A,,Clear,360,2012-10-14 04:35:00
10:55 PM,48.2,32.0,54,30.26,10.0,NNE,10.4,-,N/A,,Clear,20,2012-10-14 04:55:00
11:15 PM,46.4,32.0,57,30.26,10.0,NNE,9.2,-,N/A,,Clear,30,2012-10-14 05:15:00
11:35 PM,48.2,32.0,54,30.26,10.0,North,11.5,-,N/A,,Clear,360,2012-10-14 05:35:00
11:55 PM,46.4,32.0,57,30.26,10.0,North,10.4,-,N/A,,Clear,350,2012-10-14 05:55:00